DELTA 1 DEB, 10198

Orbit data source: Space-Track

DELTA 1 DEB, 10198 is space debris in LEO originally from a launch on Thu, 14 Jul 1977 UTC launched from the Air Force Eastern Test Range (AFETR). Debris objects in space refer to the collection of defunct objects orbiting the Earth. Examples of debris include non-operational satellites, rocket bodies, and fragments generated from explosions, collisions, or faulty payload assembly.

Loading next visibility...
Identifier
10198, 1977-065AB
Orbit
LEO
Country
Flag of USUS
Related business
Manufacturer
Unknown
Mission
Spacecraft
Bus & Motor
Unknown
Mass
Unknown
Launch date (UTC)
1977-07-14 (48 years ago)
Launch vehicle
Unknown
Launch site
Air Force Eastern Test Range (AFETR)
Object type
Payload
Rocket body
Debris
Shape & HBR
Unknown
Radar Cross Section
Small (<0.1 m²)

Expand to show TLE details & history
Last TLE update: 2 days ago

TLE from 2 days ago
0 DELTA 1 DEB
1 10198U 77065AB  25259.18209392  .00001872  00000-0  14033-2 0  9992
2 10198  29.5675  72.0278 0601638 228.4357 126.3093 13.29467000293130
Epoch: 2025-09-16T04:22Z
TLE epoch observation values (Epoch: 2025-09-16T04:22:12.914Z)
Latitude
-0.00003°
Longitude
11.09788°
Altitude
1,432.106 km
Speed
7.011 km/s
True Right ascension
04h 48m 06s
True Declination
0° 00' 00"
Sunlit
Object was in daylight at epoch
Visualization orbit readout
Latitude
Unknown
Longitude
Unknown
Altitude
Unknown
Speed
Unknown
Apparent Right ascension
Unknown
Apparent Declination
Unknown
Sunlit
N/A
Visualization observer readout
Local Sidereal Time
12:45:26
Azimuth
Unknown
Elevation
Unknown
Doppler factor
Unknown
Orbital elements
Apogee altitude
1,605.587 km
Perigee altitude
699.442 km
Semi-major axis
7,530.652 km
Eccentricity
0.06016
Inclination
29.5675°
RAAN
72.0278°
Arg. of periapsis
228.4357°
True anomaly
131.62012°
Mean anomaly
126.3093°
Eccentric anomaly
128.98865°
Mean motion
3.32119 °/min
Orbital period
108.39 mins
BSTAR
0.0014033
Loading maneuver chart data...
Computing Atmospheric mass density...
Loading historical data...
Loading historical data...
Loading historical data...
Loading historical data...
Loading historical data...
Loading historical data...
Loading historical data...

Documentation

Showing up to 5 results
|